User: anonymous
Location: Owatonna
(44.0840°N, 93.2260°W)
Time: 03:06:29
(UTC-05:00)
Language:

Cosmos 1500 Rocket - Orbit

View from above orbital plane
View from above orbital plane
View from above satellite
View from above satellite

Ground track
Ground track

The orbit data is extracted from the following two-line orbital elements,

1 14373U 83099B   14105.96749501  .00000567  00000-0  66532-4 0  6293
2 14373 082.5414 246.5310 0021928 089.1968 050.2903 14.83036716649162
Epoch (UTC): 15 April 2014 23:13:11
Eccentricity: 0.0021928
inclination: 82.5414°
perigee height: 604 km
apogee height: 635 km
right ascension of ascending node: 246.5310°
argument of perigee: 89.1968°
revolutions per day: 14.83036716
mean anomaly at epoch: 50.2903°
orbit number at epoch: 64916

The dashed part of the orbit path shows where the satellite is in the earth's shadow,  

DLR